KC5EZZ-2 Weather Reports


time (UTC)temp
C
wind
direction
speed
KPH
gust
KPH
rain 1hr
cm
rain 24hr
cm
rain mn
cm
humidity
%
barometer
mb
20260506003023 31 321 4.8 3.2 0.00 0.00 0.00
20260506002524 31 238 1.6 3.2 0.00 0.00 0.00
20260506002024 32 231 1.6 0.0 0.00 0.00 0.00
20260506001522 32 211 4.8 4.8 0.00 0.00 0.00
20260506001022 32 246 3.2 4.8 0.00 0.00 0.00
20260506000522 31 238 4.8 4.8 0.00 0.00 0.00
20260506000020 31 240 4.8 3.2 0.00 0.00 0.00
20260505235520 31 231 6.4 11.3 0.00 0.00 0.00
20260505235021 31 229 6.4 6.4 0.00 0.00 0.00
20260505234518 32 228 8.0 4.8 0.00 0.00 0.00
20260505234018 32 228 6.4 9.7 0.00 0.00 0.00
20260505233519 32 215 9.7 12.9 0.00 0.00 0.00
20260505233016 32 224 6.4 4.8 0.00 0.00 0.00
20260505232516 32 249 11.3 9.7 0.00 0.00 0.00
20260505232017 32 229 12.9 12.9 0.00 0.00 0.00
20260505231514 32 238 8.0 4.8 0.00 0.00 0.00
20260505231100 33 214 11.3 6.4 0.00 0.00 0.00
20260505231014 33 214 11.3 6.4 0.00 0.00 0.00
20260505230515 33 229 11.3 12.9 0.00 0.00 0.00
20260505230012 33 226 11.3 9.7 0.00 0.00 0.00
20260505225513 33 255 11.3 6.4 0.00 0.00 0.00
20260505225013 33 229 11.3 9.7 0.00 0.00 0.00
20260505224510 34 218 12.9 14.5 0.00 0.00 0.00
20260505224011 34 205 6.4 6.4 0.00 0.00 0.00
20260505223511 34 243 11.3 14.5 0.00 0.00 0.00
20260505223008 33 252 9.7 14.5 0.00 0.00 0.00
20260505222509 34 231 12.9 11.3 0.00 0.00 0.00
20260505222009 33 235 12.9 9.7 0.00 0.00 0.00
20260505221505 33 221 11.3 9.7 0.00 0.00 0.00
20260505221005 33 246 12.9 12.9 0.00 0.00 0.00
20260505220505 34 214 12.9 6.4 0.00 0.00 0.00
20260505220003 34 232 9.7 12.9 0.00 0.00 0.00
20260505215503 33 242 14.5 11.3 0.00 0.00 0.00
20260505215003 34 242 11.3 9.7 0.00 0.00 0.00
20260505214501 34 222 6.4 8.0 0.00 0.00 0.00
20260505214001 33 203 8.0 6.4 0.00 0.00 0.00
20260505213501 33 257 12.9 11.3 0.00 0.00 0.00
20260505213409 33 221 14.5 16.1 0.00 0.00 0.00
20260505212958 33 221 14.5 16.1 0.00 0.00 0.00
20260505212458 34 252 14.5 12.9 0.00 0.00 0.00
20260505211958 34 242 14.5 17.7 0.00 0.00 0.00
20260505211456 34 285 12.9 9.7 0.00 0.00 0.00
20260505210956 33 269 9.7 6.4 0.00 0.00 0.00
20260505210456 34 277 16.1 16.1 0.00 0.00 0.00
20260505205954 35 295 12.9 12.9 0.00 0.00 0.00
20260505205454 34 284 16.1 14.5 0.00 0.00 0.00
20260505204954 34 215 14.5 16.1 0.00 0.00 0.00
20260505204452 35 269 17.7 12.9 0.00 0.00 0.00
20260505203952 35 293 11.3 14.5 0.00 0.00 0.00
20260505203452 35 239 6.4 14.5 0.00 0.00 0.00
20260505202950 35 281 8.0 17.7 0.00 0.00 0.00
20260505202450 34 257 9.7 11.3 0.00 0.00 0.00
20260505201950 35 264 9.7 17.7 0.00 0.00 0.00
20260505201447 34 300 9.7 8.0 0.00 0.00 0.00
20260505200948 34 252 9.7 16.1 0.00 0.00 0.00
20260505200448 33 238 12.9 16.1 0.00 0.00 0.00
20260505195946 34 264 12.9 12.9 0.00 0.00 0.00
20260505195446 35 246 8.0 9.7 0.00 0.00 0.00
20260505194946 34 253 11.3 12.9 0.00 0.00 0.00
20260505194442 34 238 14.5 11.3 0.00 0.00 0.00
20260505193942 35 233 11.3 11.3 0.00 0.00 0.00
20260505193442 34 288 11.3 6.4 0.00 0.00 0.00
20260505193313 33 260 11.3 11.3 0.00 0.00 0.00
20260505192940 33 273 9.7 3.2 0.00 0.00 0.00
20260505192440 33 260 11.3 11.3 0.00 0.00 0.00
20260505191940 33 270 11.3 11.3 0.00 0.00 0.00
20260505191438 33 242 8.0 12.9 0.00 0.00 0.00
20260505190938 33 260 11.3 11.3 0.00 0.00 0.00
20260505190438 33 255 16.1 9.7 0.00 0.00 0.00
20260505185936 33 284 9.7 19.3 0.00 0.00 0.00
20260505185436 33 263 8.0 16.1 0.00 0.00 0.00
20260505184936 33 250 14.5 12.9 0.00 0.00 0.00
20260505184434 32 246 14.5 14.5 0.00 0.00 0.00
20260505183934 32 232 12.9 6.4 0.00 0.00 0.00
20260505183434 33 284 14.5 12.9 0.00 0.00 0.00
20260505182932 32 264 11.3 9.7 0.00 0.00 0.00
20260505182432 32 290 14.5 8.0 0.00 0.00 0.00
20260505181933 32 270 16.1 11.3 0.00 0.00 0.00
20260505181430 32 253 14.5 9.7 0.00 0.00 0.00
20260505180930 32 242 12.9 12.9 0.00 0.00 0.00
20260505180431 32 239 11.3 12.9 0.00 0.00 0.00
20260505175928 32 249 14.5 12.9 0.00 0.00 0.00
20260505175429 32 285 17.7 12.9 0.00 0.00 0.00
20260505174929 32 271 9.7 8.0 0.00 0.00 0.00
20260505174426 32 224 11.3 16.1 0.00 0.00 0.00
20260505173926 32 248 16.1 11.3 0.00 0.00 0.00
20260505173427 32 281 11.3 12.9 0.00 0.00 0.00
20260505172924 32 243 11.3 9.7 0.00 0.00 0.00
20260505172425 32 245 4.8 4.8 0.00 0.00 0.00
20260505171925 31 203 9.7 11.3 0.00 0.00 0.00
20260505171422 31 165 8.0 6.4 0.00 0.00 0.00
20260505170923 31 191 9.7 6.4 0.00 0.00 0.00
20260505170423 30 232 9.7 8.0 0.00 0.00 0.00
20260505165920 30 253 8.0 8.0 0.00 0.00 0.00
20260505165534 29 236 12.9 11.3 0.00 0.00 0.00
20260505165421 29 236 12.9 11.3 0.00 0.00 0.00
20260505164921 28 211 12.9 9.7 0.00 0.00 0.00
20260505164519 28 203 16.1 16.1 0.00 0.00 0.00
20260505164419 28 203 16.1 16.1 0.00 0.00 0.00
20260505163919 28 222 12.9 17.7 0.00 0.00 0.00
20260505163420 28 232 19.3 14.5 0.00 0.00 0.00
20260505162917 28 205 11.3 19.3 0.00 0.00 0.00
20260505162417 27 197 14.5 9.7 0.00 0.00 0.00
20260505161918 27 197 12.9 12.9 0.00 0.00 0.00
20260505161415 26 225 17.7 16.1 0.00 0.00 0.00
20260505160915 26 194 17.7 16.1 0.00 0.00 0.00
20260505160415 26 218 17.7 14.5 0.00 0.00 0.00
20260505152908 26 198 14.5 12.9 0.00 0.00 0.00
20260505152408 26 180 11.3 9.7 0.00 0.00 0.00
20260505151909 26 198 9.7 14.5 0.00 0.00 0.00
20260505151406 25 195 12.9 12.9 0.00 0.00 0.00
20260505150407 25 172 12.9 12.9 0.00 0.00 0.00
20260505140358 22 193 16.1 22.5 0.00 0.00 0.00
20260505124847 20 225 11.3 11.3 0.00 0.00 0.00
20260505124421 20 191 11.3 14.5 0.00 0.00 0.00
20260505124345 20 191 11.3 14.5 0.00 0.00 0.00
20260505123845 20 191 12.9 20.9 0.00 0.00 0.00
20260505123346 20 203 14.5 14.5 0.00 0.00 0.00
20260505122843 20 210 12.9 9.7 0.00 0.00 0.00
20260505122344 20 197 12.9 14.5 0.00 0.00 0.00
20260505121844 20 200 17.7 17.7 0.00 0.00 0.00
20260505121340 20 208 17.7 12.9 0.00 0.00 0.00
20260505120923 20 188 19.3 24.1 0.00 0.00 0.00
20260505120840 20 188 19.3 24.1 0.00 0.00 0.00
20260505120341 19 204 17.7 16.1 0.00 0.00 0.00
20260505115847 20 188 17.7 14.5 0.00 0.00 0.00
20260505115838 20 188 17.7 14.5 0.00 0.00 0.00
20260505115434 20 183 19.3 14.5 0.00 0.00 0.00
20260505115339 20 183 19.3 14.5 0.00 0.00 0.00
20260505114839 19 224 16.1 20.9 0.00 0.00 0.00
20260505114336 19 188 16.1 16.1 0.00 0.00 0.00
20260505113836 19 188 12.9 17.7 0.00 0.00 0.00
20260505113337 19 201 14.5 12.9 0.00 0.00 0.00
20260505112834 19 205 12.9 17.7 0.00 0.00 0.00
20260505112335 19 177 11.3 12.9 0.00 0.00 0.00
20260505111835 19 233 11.3 12.9 0.00 0.00 0.00
20260505111333 19 188 9.7 11.3 0.00 0.00 0.00
20260505110833 20 245 9.7 11.3 0.00 0.00 0.00
20260505110408 20 194 12.9 14.5 0.00 0.00 0.00
20260505110333 20 194 12.9 14.5 0.00 0.00 0.00
20260505101828 20 194 14.5 12.9 0.00 0.00 0.00
20260505101414 20 191 11.3 14.5 0.00 0.00 0.00
20260505101325 20 191 11.3 14.5 0.00 0.00 0.00
20260505100826 20 170 14.5 14.5 0.00 0.00 0.00
20260505100326 20 172 14.5 11.3 0.00 0.00 0.00
20260505095824 20 191 16.1 14.5 0.00 0.00 0.00
20260505095324 20 194 16.1 17.7 0.00 0.00 0.00
20260505094825 20 203 14.5 16.1 0.00 0.00 0.00
20260505094401 20 187 17.7 19.3 0.00 0.00 0.00
20260505094323 20 187 17.7 19.3 0.00 0.00 0.00
20260505093324 20 195 14.5 12.9 0.00 0.00 0.00
20260505092821 20 176 12.9 14.5 0.00 0.00 0.00
20260505092322 20 184 16.1 16.1 0.00 0.00 0.00
20260505091822 21 204 16.1 12.9 0.00 0.00 0.00
20260505091319 20 205 14.5 9.7 0.00 0.00 0.00
20260505090820 21 197 17.7 20.9 0.00 0.00 0.00
20260505090320 20 194 14.5 17.7 0.00 0.00 0.00
20260505085817 20 198 14.5 14.5 0.00 0.00 0.00
20260505085318 20 201 19.3 12.9 0.00 0.00 0.00
20260505084818 20 219 12.9 12.9 0.00 0.00 0.00
20260505084316 21 205 12.9 11.3 0.00 0.00 0.00
20260505083816 21 176 19.3 19.3 0.00 0.00 0.00
20260505083317 21 211 17.7 16.1 0.00 0.00 0.00
20260505082814 21 207 14.5 16.1 0.00 0.00 0.00
20260505082350 21 194 14.5 16.1 0.00 0.00 0.00
20260505082316 21 194 14.5 16.1 0.00 0.00 0.00
20260505081857 21 170 16.1 14.5 0.00 0.00 0.00
20260505081815 21 170 16.1 14.5 0.00 0.00 0.00
20260505081313 21 173 19.3 19.3 0.00 0.00 0.00
20260505080813 21 207 16.1 9.7 0.00 0.00 0.00
20260505080314 21 198 20.9 16.1 0.00 0.00 0.00
20260505075811 21 207 16.1 16.1 0.00 0.00 0.00
20260505075312 21 186 19.3 19.3 0.00 0.00 0.00
20260505074812 21 193 16.1 20.9 0.00 0.00 0.00
20260505074310 21 204 17.7 27.4 0.00 0.00 0.00
20260505073810 21 170 20.9 14.5 0.00 0.00 0.00
20260505073311 21 183 25.7 22.5 0.00 0.00 0.00
20260505072808 21 183 20.9 22.5 0.00 0.00 0.00
20260505072309 21 195 22.5 19.3 0.00 0.00 0.00
20260505071809 21 158 24.1 17.7 0.00 0.00 0.00
20260505071307 21 184 19.3 17.7 0.00 0.00 0.00
20260505070807 21 193 16.1 19.3 0.00 0.00 0.00
20260505070307 21 176 19.3 20.9 0.00 0.00 0.00
20260505065805 21 193 20.9 20.9 0.00 0.00 0.00
20260505065305 21 177 16.1 11.3 0.00 0.00 0.00
20260505064806 21 184 20.9 22.5 0.00 0.00 0.00
20260505064303 21 203 17.7 12.9 0.00 0.00 0.00
20260505063804 21 204 17.7 14.5 0.00 0.00 0.00
20260505063304 21 167 17.7 17.7 0.00 0.00 0.00
20260505062801 21 169 20.9 17.7 0.00 0.00 0.00
20260505062301 22 169 20.9 22.5 0.00 0.00 0.00
20260505061801 22 190 17.7 16.1 0.00 0.00 0.00
20260505061259 22 163 17.7 17.7 0.00 0.00 0.00
20260505060759 22 177 19.3 17.7 0.00 0.00 0.00
20260505060300 22 166 17.7 19.3 0.00 0.00 0.00
20260505055757 22 188 19.3 29.0 0.00 0.00 0.00
20260505055258 22 141 17.7 22.5 0.00 0.00 0.00
20260505054758 22 176 22.5 19.3 0.00 0.00 0.00
20260505054256 22 163 19.3 19.3 0.00 0.00 0.00
20260505053756 22 170 27.4 17.7 0.00 0.00 0.00
20260505053257 22 188 19.3 24.1 0.00 0.00 0.00
20260505052754 22 167 16.1 20.9 0.00 0.00 0.00
20260505052255 22 193 22.5 30.6 0.00 0.00 0.00
20260505051755 22 177 20.9 24.1 0.00 0.00 0.00
20260505051253 22 153 25.7 19.3 0.00 0.00 0.00
20260505050753 22 166 19.3 19.3 0.00 0.00 0.00
20260505050255 22 180 20.9 17.7 0.00 0.00 0.00
20260505041748 23 173 20.9 19.3 0.00 0.00 0.00
20260505041246 23 194 17.7 19.3 0.00 0.00 0.00
20260505040746 23 162 22.5 20.9 0.00 0.00 0.00
20260505040246 23 124 17.7 20.9 0.00 0.00 0.00
20260505035846 23 193 19.3 16.1 0.00 0.00 0.00
20260505035744 23 193 19.3 16.1 0.00 0.00 0.00
20260505035359 23 170 17.7 22.5 0.00 0.00 0.00
20260505035244 23 170 17.7 22.5 0.00 0.00 0.00
20260505034745 24 165 17.7 16.1 0.00 0.00 0.00
20260505034242 23 210 17.7 22.5 0.00 0.00 0.00
20260505034002 24 149 19.3 16.1 0.00 0.00 0.00
20260505033743 24 149 19.3 16.1 0.00 0.00 0.00
20260505033243 24 162 17.7 24.1 0.00 0.00 0.00
20260505032741 24 186 19.3 22.5 0.00 0.00 0.00
20260505032241 24 160 19.3 17.7 0.00 0.00 0.00
20260505031742 24 184 17.7 11.3 0.00 0.00 0.00
20260505031239 24 172 19.3 16.1 0.00 0.00 0.00
20260505030740 25 158 17.7 20.9 0.00 0.00 0.00
20260505030240 25 193 14.5 14.5 0.00 0.00 0.00
20260505025738 25 146 12.9 12.9 0.00 0.00 0.00
20260505025238 25 191 16.1 12.9 0.00 0.00 0.00
20260505024739 25 184 20.9 17.7 0.00 0.00 0.00
20260505024236 25 174 14.5 12.9 0.00 0.00 0.00
20260505023737 25 190 16.1 12.9 0.00 0.00 0.00
20260505023237 25 167 16.1 19.3 0.00 0.00 0.00
20260505022734 25 190 14.5 11.3 0.00 0.00 0.00
20260505022235 25 176 16.1 22.5 0.00 0.00 0.00
20260505021735 25 148 22.5 19.3 0.00 0.00 0.00
20260505021233 26 173 16.1 17.7 0.00 0.00 0.00
20260505020733 26 155 16.1 17.7 0.00 0.00 0.00
20260505020234 26 162 19.3 17.7 0.00 0.00 0.00
20260505015731 26 174 14.5 24.1 0.00 0.00 0.00
20260505015232 26 158 12.9 14.5 0.00 0.00 0.00
20260505014732 26 172 16.1 14.5 0.00 0.00 0.00
20260505014230 26 177 16.1 20.9 0.00 0.00 0.00
20260505013730 26 177 12.9 11.3 0.00 0.00 0.00
20260505013231 26 169 12.9 11.3 0.00 0.00 0.00
20260505012728 26 143 14.5 19.3 0.00 0.00 0.00
20260505012229 27 172 16.1 16.1 0.00 0.00 0.00
20260505011729 27 197 16.1 14.5 0.00 0.00 0.00
20260505011227 27 184 14.5 12.9 0.00 0.00 0.00
20260505010227 28 186 16.1 11.3 0.00 0.00 0.00
20260505005226 28 212 19.3 16.1 0.00 0.00 0.00
20260505004726 28 187 17.7 19.3 0.00 0.00 0.00
20260505004224 28 183 19.3 22.5 0.00 0.00 0.00
20260505003724 28 190 20.9 22.5 0.00 0.00 0.00
20260505003225 28 201 12.9 14.5 0.00 0.00 0.00